Location: Unspecified
(0.0000°N, 0.0000°E)
Time: 10:20:36
(UTC+00:00)

OBJECT B - Visible Passes

Search period start: 11 March 2026 00:00
Search period end: 21 March 2026 00:00
Orbit: 888 x 905 km, 45.0° (Epoch: 11 March)

Date Brightness Start Highest point End Pass type
(mag) Time Alt. Az. Time Alt. Az. Time Alt. Az.
15 Mar ? 19:49:45 10° SSE 19:50:08 11° SSE 19:50:08 11° SSE visible
16 Mar ? 19:49:03 10° S 19:51:18 18° SSE 19:51:18 18° SSE visible
17 Mar ? 19:48:55 10° SSW 19:52:37 28° SSE 19:52:37 28° SSE visible
18 Mar ? 19:49:05 10° SSW 19:54:04 45° SSE 19:54:04 45° SSE visible
19 Mar ? 19:49:28 10° SW 19:55:33 74° SE 19:55:40 74° ESE visible
20 Mar ? 19:50:06 10° SW 19:56:10 74° NW 19:57:25 56° NNE visible
